Station Historical Data
Daily Summary for October 5, 2017 Units:  Metric    English   Both
« Previous Day
Next Day »
Daily Weekly Monthly Yearly Custom
  High: Low: Average:
Temperature: 20.7 °C 12.3 °C 17.2 °C
Dew Point: 14.9 °C 9.1 °C 11.7 °C
Humidity: 87% 54% 71%
Wind Speed: 32.2km/h 0km/h 5km/h
Wind Gust: 33.8km/h - -
Wind- - WSW
Pressure: 1021.6 hPa 1017.5 hPa -
Precipitation: 0 mm    
Historical Graphs
 
 
Tabular Data for October 5, 2017
Time Temperature Dew Point Pressure Wind Wind Speed Wind Gust Humidity Rainfall Rate (Hourly)
00:04 17.1 °C 14.9 °C 1021.2 hPa Calm   4.8 km/h 87% 0 mm
00:09 17.1 °C 14.9 °C 1020.9 hPa Calm   4.8 km/h 87% 0 mm
00:14 17 °C 14.8 °C 1021.2 hPa Calm   4.8 km/h 87% 0 mm
00:19 17 °C 14.7 °C 1021.2 hPa Calm   6.4 km/h 86% 0 mm
00:24 16.9 °C 14.6 °C 1021.2 hPa NNW 3.2 km/h 4.8 km/h 86% 0 mm
00:29 16.8 °C 14.5 °C 1021.2 hPa Calm   4.8 km/h 86% 0 mm
00:34 16.8 °C 14.4 °C 1021.2 hPa Calm   3.2 km/h 86% 0 mm
00:39 16.7 °C 14.2 °C 1021.2 hPa Calm     85% 0 mm
00:44 16.7 °C 14.2 °C 1021.2 hPa Calm     85% 0 mm
00:49 16.8 °C 14.2 °C 1021.2 hPa Calm     85% 0 mm
00:54 16.8 °C 14.2 °C 1021.2 hPa Calm     85% 0 mm
00:59 16.7 °C 14 °C 1021.2 hPa Calm     84% 0 mm
01:04 16.8 °C 14.1 °C 1021.2 hPa Calm     84% 0 mm
01:09 16.7 °C 13.8 °C 1021.2 hPa Calm     83% 0 mm
01:24 16.8 °C 13.5 °C 1021.2 hPa Calm     81% 0 mm
01:29 16.7 °C 13.3 °C 1021.2 hPa Calm   1.6 km/h 80% 0 mm
01:39 16.6 °C 12.9 °C 1021.6 hPa Calm     79% 0 mm
01:44 16.6 °C 12.9 °C 1021.2 hPa Calm     79% 0 mm
01:49 16.6 °C 12.7 °C 1021.2 hPa Calm     78% 0 mm
01:54 16.6 °C 12.7 °C 1021.6 hPa Calm     78% 0 mm
01:59 16.6 °C 12.6 °C 1021.6 hPa Calm     77% 0 mm
02:04 16.6 °C 12.5 °C 1021.6 hPa Calm     77% 0 mm
02:09 16.4 °C 12.4 °C 1021.2 hPa Calm     77% 0 mm
02:14 16.4 °C 12.3 °C 1021.2 hPa Calm     77% 0 mm
02:19 16.3 °C 12.2 °C 1021.2 hPa Calm     77% 0 mm
02:24 16.3 °C 12.2 °C 1021.2 hPa Calm     77% 0 mm
02:29 16.3 °C 12.2 °C 1021.2 hPa Calm     77% 0 mm
02:34 16.2 °C 12.1 °C 1020.9 hPa Calm     77% 0 mm
02:39 16.1 °C 12.1 °C 1020.9 hPa Calm     77% 0 mm
02:44 16.1 °C 12.1 °C 1021.2 hPa Calm     77% 0 mm
02:49 16.1 °C 11.9 °C 1020.9 hPa Calm     76% 0 mm
02:54 16.1 °C 11.9 °C 1020.9 hPa Calm     76% 0 mm
02:59 16 °C 11.8 °C 1020.9 hPa Calm     76% 0 mm
03:04 15.9 °C 11.7 °C 1020.5 hPa Calm     76% 0 mm
03:09 15.9 °C 11.9 °C 1020.5 hPa Calm     77% 0 mm
03:14 15.9 °C 12.1 °C 1020.5 hPa Calm     78% 0 mm
03:19 15.9 °C 12.1 °C 1020.9 hPa Calm     78% 0 mm
03:24 15.9 °C 11.8 °C 1020.9 hPa Calm     77% 0 mm
03:29 15.9 °C 12.1 °C 1020.5 hPa Calm     78% 0 mm
03:34 15.9 °C 11.8 °C 1020.9 hPa Calm     77% 0 mm
03:44 15.8 °C 11.8 °C 1020.5 hPa Calm     77% 0 mm
03:49 15.7 °C 11.7 °C 1020.5 hPa Calm     77% 0 mm
03:54 15.7 °C 11.5 °C 1020.5 hPa Calm     76% 0 mm
03:59 15.8 °C 11.6 °C 1020.5 hPa Calm     76% 0 mm
04:04 15.8 °C 11.6 °C 1020.5 hPa Calm     76% 0 mm
04:09 15.7 °C 11.7 °C 1020.5 hPa Calm     77% 0 mm
04:19 15.7 °C 11.8 °C 1020.9 hPa Calm     78% 0 mm
04:24 15.6 °C 11.8 °C 1020.9 hPa Calm     78% 0 mm
04:34 15.4 °C 11.8 °C 1020.9 hPa Calm     79% 0 mm
04:39 15.4 °C 11.8 °C 1020.9 hPa Calm     79% 0 mm
04:44 15.4 °C 12 °C 1020.9 hPa Calm     80% 0 mm
04:54 15.3 °C 11.8 °C 1020.5 hPa Calm     80% 0 mm
04:59 15.2 °C 11.6 °C 1020.5 hPa Calm     79% 0 mm
05:04 15.1 °C 11.4 °C 1020.5 hPa Calm     79% 0 mm
05:09 14.9 °C 11.3 °C 1020.5 hPa Calm     79% 0 mm
05:14 14.8 °C 11.3 °C 1020.5 hPa Calm     80% 0 mm
05:19 14.4 °C 11.2 °C 1020.5 hPa Calm     81% 0 mm
05:24 14.2 °C 11.1 °C 1020.5 hPa Calm     82% 0 mm
05:29 13.9 °C 11.1 °C 1020.5 hPa Calm     83% 0 mm
05:34 13.7 °C 10.9 °C 1020.5 hPa Calm     83% 0 mm
05:39 13.6 °C 10.7 °C 1020.5 hPa Calm     83% 0 mm
05:44 13.4 °C 10.8 °C 1020.5 hPa Calm     84% 0 mm
05:49 13.4 °C 10.9 °C 1020.5 hPa Calm     85% 0 mm
05:54 13.5 °C 11 °C 1020.2 hPa Calm     85% 0 mm
05:59 13.6 °C 11.1 °C 1020.2 hPa Calm     85% 0 mm
06:04 13.6 °C 11.1 °C 1020.2 hPa Calm     85% 0 mm
06:09 13.4 °C 10.9 °C 1020.2 hPa Calm     85% 0 mm
06:14 13.4 °C 10.9 °C 1020.2 hPa Calm     85% 0 mm
06:19 13.3 °C 10.7 °C 1020.2 hPa Calm     84% 0 mm
06:24 13.3 °C 10.6 °C 1020.2 hPa Calm     84% 0 mm
06:29 13.2 °C 10.5 °C 1020.2 hPa Calm     84% 0 mm
06:34 13 °C 10.3 °C 1020.2 hPa Calm     84% 0 mm
06:39 12.9 °C 10.4 °C 1020.5 hPa Calm     85% 0 mm
06:44 12.7 °C 10.2 °C 1020.5 hPa Calm     85% 0 mm
06:49 12.6 °C 10.1 °C 1020.5 hPa Calm     85% 0 mm
06:54 12.4 °C 10.2 °C 1020.5 hPa Calm     86% 0 mm
06:59 12.6 °C 10.3 °C 1020.5 hPa Calm     86% 0 mm
07:04 12.5 °C 10.2 °C 1020.5 hPa Calm     86% 0 mm
07:09 12.5 °C 10.2 °C 1020.5 hPa Calm     86% 0 mm
07:14 12.6 °C 10.5 °C 1020.5 hPa Calm     87% 0 mm
07:19 12.7 °C 10.4 °C 1020.5 hPa Calm     86% 0 mm
07:24 12.8 °C 10.5 °C 1020.5 hPa Calm     86% 0 mm
07:29 12.7 °C 10.4 °C 1020.5 hPa Calm     86% 0 mm
07:34 12.6 °C 10.3 °C 1020.9 hPa Calm     86% 0 mm
07:39 12.4 °C 10.1 °C 1020.9 hPa Calm     86% 0 mm
07:44 12.3 °C 10 °C 1020.9 hPa Calm     86% 0 mm
07:49 12.3 °C 10.2 °C 1020.9 hPa Calm     87% 0 mm
07:54 12.5 °C 10.4 °C 1020.9 hPa Calm     87% 0 mm
07:59 12.6 °C 10.5 °C 1020.9 hPa Calm     87% 0 mm
08:04 12.8 °C 10.5 °C 1021.2 hPa Calm     86% 0 mm
08:09 12.9 °C 10.5 °C 1021.2 hPa Calm     85% 0 mm
08:14 13.2 °C 10.6 °C 1021.2 hPa Calm   1.6 km/h 84% 0 mm
08:19 13.4 °C 10.6 °C 1021.2 hPa Calm   6.4 km/h 83% 0 mm
08:24 13.6 °C 10.6 °C 1021.2 hPa West 1.6 km/h 6.4 km/h 82% 0 mm
08:34 14.1 °C 10.7 °C 1021.2 hPa West 1.6 km/h 4.8 km/h 80% 0 mm
08:39 14.4 °C 10.6 °C 1021.2 hPa NW 4.8 km/h 8 km/h 78% 0 mm
08:44 14.7 °C 10.6 °C 1021.2 hPa WNW 1.6 km/h 6.4 km/h 76% 0 mm
08:49 15 °C 10.6 °C 1021.2 hPa WNW 1.6 km/h 4.8 km/h 75% 0 mm
08:54 15.3 °C 10.5 °C 1021.2 hPa WNW 3.2 km/h 4.8 km/h 73% 0 mm
08:59 15.7 °C 10.7 °C 1021.2 hPa WNW 3.2 km/h 8 km/h 72% 0 mm
09:04 15.9 °C 10.4 °C 1021.2 hPa WNW 1.6 km/h 8 km/h 70% 0 mm
09:09 16 °C 10.3 °C 1021.2 hPa WNW 1.6 km/h 6.4 km/h 69% 0 mm
09:14 16.3 °C 10.3 °C 1021.2 hPa West 3.2 km/h 9.7 km/h 68% 0 mm
09:19 16.3 °C 10.2 °C 1021.2 hPa WNW 6.4 km/h 8 km/h 67% 0 mm
09:24 16.4 °C 10 °C 1021.2 hPa West 4.8 km/h 8 km/h 66% 0 mm
09:29 16.8 °C 10.2 °C 1021.2 hPa West 3.2 km/h 6.4 km/h 65% 0 mm
09:44 17.4 °C 9.6 °C 1021.2 hPa West 3.2 km/h 8 km/h 60% 0 mm
09:49 17.7 °C 9.6 °C 1021.6 hPa WSW 3.2 km/h 8 km/h 59% 0 mm
09:54 17.9 °C 9.5 °C 1021.6 hPa SSW 4.8 km/h 6.4 km/h 58% 0 mm
09:59 18 °C 9.3 °C 1021.6 hPa WNW 4.8 km/h 6.4 km/h 57% 0 mm
10:04 18.1 °C 9.1 °C 1021.2 hPa WSW 4.8 km/h 8 km/h 56% 0 mm
10:09 18.3 °C 9.9 °C 1021.2 hPa West 4.8 km/h 11.3 km/h 58% 0 mm
10:14 18.4 °C 9.7 °C 1021.2 hPa West 6.4 km/h 14.5 km/h 57% 0 mm
10:19 18.4 °C 10 °C 1021.2 hPa NW 9.7 km/h 12.9 km/h 58% 0 mm
10:24 18.7 °C 10 °C 1021.2 hPa West 8 km/h 12.9 km/h 57% 0 mm
10:29 18.6 °C 10.2 °C 1021.2 hPa WSW 6.4 km/h 12.9 km/h 58% 0 mm
10:34 18.9 °C 10.7 °C 1021.2 hPa WNW 4.8 km/h 11.3 km/h 59% 0 mm
10:39 18.9 °C 10.2 °C 1020.9 hPa WNW 6.4 km/h 11.3 km/h 57% 0 mm
10:44 19.4 °C 10.4 °C 1020.9 hPa WNW 4.8 km/h 12.9 km/h 56% 0 mm
10:49 19.4 °C 10.7 °C 1020.9 hPa WNW 6.4 km/h 14.5 km/h 57% 0 mm
10:54 19.3 °C 10.3 °C 1020.9 hPa WNW 8 km/h 16.1 km/h 56% 0 mm
10:59 19.3 °C 10.3 °C 1020.9 hPa West 8 km/h 16.1 km/h 56% 0 mm
11:09 19.6 °C 10.8 °C 1020.5 hPa West 6.4 km/h 19.3 km/h 57% 0 mm
11:14 19.7 °C 10.7 °C 1020.5 hPa West 4.8 km/h 14.5 km/h 56% 0 mm
11:19 19.3 °C 11.1 °C 1020.5 hPa WSW 1.6 km/h 17.7 km/h 59% 0 mm
11:24 19.8 °C 11.3 °C 1020.5 hPa SW 8 km/h 17.7 km/h 58% 0 mm
11:29 19.8 °C 10.8 °C 1020.2 hPa WSW 12.9 km/h 12.9 km/h 56% 0 mm
11:34 20 °C 11.2 °C 1020.2 hPa SSW 4.8 km/h 14.5 km/h 57% 0 mm
11:39 20 °C 10.9 °C 1020.2 hPa WSW 8 km/h 12.9 km/h 56% 0 mm
11:44 20.1 °C 10.7 °C 1020.2 hPa WSW 6.4 km/h 12.9 km/h 55% 0 mm
11:49 19.9 °C 10.9 °C 1020.2 hPa WSW 6.4 km/h 12.9 km/h 56% 0 mm
11:54 19.9 °C 11.2 °C 1020.2 hPa WSW 8 km/h 17.7 km/h 57% 0 mm
11:59 19.9 °C 11.4 °C 1020.2 hPa SW 8 km/h 17.7 km/h 58% 0 mm
12:04 19.8 °C 11.1 °C 1019.9 hPa West 6.4 km/h 16.1 km/h 57% 0 mm
12:09 20.1 °C 12.1 °C 1019.9 hPa SW 9.7 km/h 14.5 km/h 60% 0 mm
12:14 20.5 °C 12.2 °C 1019.9 hPa SW 4.8 km/h 14.5 km/h 59% 0 mm
12:19 20.4 °C 11.1 °C 1019.5 hPa SW 6.4 km/h 16.1 km/h 55% 0 mm
12:24 20.3 °C 10.7 °C 1019.9 hPa SW 8 km/h 24.1 km/h 54% 0 mm
12:29 20.2 °C 10.6 °C 1019.5 hPa SSW 11.3 km/h 17.7 km/h 54% 0 mm
12:39 20.2 °C 10.8 °C 1019.5 hPa SSW 6.4 km/h 24.1 km/h 55% 0 mm
12:44 20.1 °C 10.4 °C 1019.5 hPa SW 11.3 km/h 24.1 km/h 54% 0 mm
12:49 20 °C 10.4 °C 1019.5 hPa WSW 12.9 km/h 24.1 km/h 54% 0 mm
12:54 20.1 °C 11.3 °C 1019.9 hPa SW 12.9 km/h 22.5 km/h 57% 0 mm
12:59 20.1 °C 11.3 °C 1019.5 hPa SW 12.9 km/h 22.5 km/h 57% 0 mm
13:14 20.4 °C 12.4 °C 1019.5 hPa WSW 9.7 km/h 19.3 km/h 60% 0 mm
13:19 20.3 °C 12.3 °C 1019.5 hPa WSW 9.7 km/h 20.9 km/h 60% 0 mm
13:24 20.2 °C 12.2 °C 1019.2 hPa SW 9.7 km/h 20.9 km/h 60% 0 mm
13:29 20.2 °C 12.4 °C 1019.2 hPa WSW 9.7 km/h 19.3 km/h 61% 0 mm
13:34 20.2 °C 12.7 °C 1019.2 hPa WSW 9.7 km/h 24.1 km/h 62% 0 mm
13:39 20.1 °C 12.3 °C 1018.8 hPa West 9.7 km/h 19.3 km/h 61% 0 mm
13:44 20.3 °C 12.6 °C 1018.8 hPa WSW 9.7 km/h 19.3 km/h 61% 0 mm
13:54 20.2 °C 12.7 °C 1018.8 hPa WSW 12.9 km/h 24.1 km/h 62% 0 mm
13:59 20.1 °C 12.8 °C 1018.8 hPa SW 11.3 km/h 29 km/h 63% 0 mm
14:04 20.1 °C 12.6 °C 1019.2 hPa WSW 8 km/h 24.1 km/h 62% 0 mm
14:09 20.4 °C 12.9 °C 1019.2 hPa West 8 km/h 20.9 km/h 62% 0 mm
14:14 20.3 °C 12.8 °C 1019.2 hPa WSW 9.7 km/h 24.1 km/h 62% 0 mm
14:19 20 °C 12.7 °C 1018.8 hPa WSW 11.3 km/h 24.1 km/h 63% 0 mm
14:24 19.9 °C 12.7 °C 1018.8 hPa WSW 11.3 km/h 22.5 km/h 63% 0 mm
14:29 20.2 °C 13.1 °C 1018.8 hPa WSW 11.3 km/h 25.7 km/h 64% 0 mm
14:34 20.3 °C 13.3 °C 1018.5 hPa WSW 11.3 km/h 25.7 km/h 64% 0 mm
14:39 20.4 °C 12.9 °C 1018.5 hPa West 12.9 km/h 20.9 km/h 62% 0 mm
14:44 20.3 °C 12.8 °C 1018.8 hPa WSW 3.2 km/h 19.3 km/h 62% 0 mm
14:54 20.6 °C 13 °C 1018.8 hPa SW 14.5 km/h 19.3 km/h 62% 0 mm
14:59 20.2 °C 12.4 °C 1018.8 hPa SW 6.4 km/h 25.7 km/h 61% 0 mm
15:04 20.3 °C 12.8 °C 1018.5 hPa SW 32.2 km/h 32.2 km/h 62% 0 mm
15:09 20 °C 11.7 °C 1018.8 hPa WNW 12.9 km/h 32.2 km/h 59% 0 mm
15:19 20.1 °C 12.6 °C 1018.5 hPa WSW 14.5 km/h 30.6 km/h 62% 0 mm
15:24 20.1 °C 11.8 °C 1018.8 hPa WSW 14.5 km/h 30.6 km/h 59% 0 mm
15:29 20.2 °C 11.4 °C 1018.5 hPa WSW 14.5 km/h 30.6 km/h 57% 0 mm
15:34 20.3 °C 11.8 °C 1018.5 hPa WSW 12.9 km/h 24.1 km/h 58% 0 mm
15:39 20.3 °C 11.6 °C 1018.2 hPa SW 16.1 km/h 27.4 km/h 57% 0 mm
15:44 20.3 °C 11.7 °C 1018.2 hPa WSW 11.3 km/h 33.8 km/h 58% 0 mm
15:49 20.2 °C 12.2 °C 1018.2 hPa WSW 14.5 km/h 33.8 km/h 60% 0 mm
15:54 20.4 °C 11.8 °C 1018.2 hPa WSW 12.9 km/h 24.1 km/h 58% 0 mm
15:59 20.3 °C 11.3 °C 1018.2 hPa WSW 12.9 km/h 30.6 km/h 56% 0 mm
16:04 20.1 °C 11.6 °C 1017.8 hPa WSW 11.3 km/h 27.4 km/h 58% 0 mm
16:09 20.1 °C 11.6 °C 1017.8 hPa SW 11.3 km/h 27.4 km/h 58% 0 mm
16:14 20.3 °C 12 °C 1017.8 hPa West 4.8 km/h 19.3 km/h 59% 0 mm
16:19 20.7 °C 11.9 °C 1017.8 hPa WSW 9.7 km/h 19.3 km/h 57% 0 mm
16:29 20.2 °C 11.1 °C 1017.8 hPa West 11.3 km/h 24.1 km/h 56% 0 mm
16:34 20.3 °C 11.8 °C 1017.8 hPa West 8 km/h 17.7 km/h 58% 0 mm
16:39 20.3 °C 12 °C 1017.8 hPa WNW 6.4 km/h 17.7 km/h 59% 0 mm
16:44 20.3 °C 12 °C 1017.8 hPa South 8 km/h 19.3 km/h 59% 0 mm
16:49 20.2 °C 12.2 °C 1017.8 hPa SSW 8 km/h 16.1 km/h 60% 0 mm
16:54 20.1 °C 12.1 °C 1017.8 hPa WSW 9.7 km/h 20.9 km/h 60% 0 mm
16:59 20 °C 12.2 °C 1017.8 hPa WSW 9.7 km/h 20.9 km/h 61% 0 mm
17:04 19.9 °C 12.2 °C 1017.8 hPa West 14.5 km/h 22.5 km/h 61% 0 mm
17:09 20 °C 12.7 °C 1017.8 hPa South 17.7 km/h 19.3 km/h 63% 0 mm
17:14 19.9 °C 12.2 °C 1017.8 hPa SW 14.5 km/h 22.5 km/h 61% 0 mm
17:19 19.7 °C 12.2 °C 1017.8 hPa SW 16.1 km/h 30.6 km/h 62% 0 mm
17:24 19.5 °C 12.3 °C 1017.8 hPa WSW 14.5 km/h 30.6 km/h 63% 0 mm
17:29 19.4 °C 12.4 °C 1017.8 hPa WSW 12.9 km/h 24.1 km/h 64% 0 mm
17:34 19.4 °C 12.9 °C 1017.8 hPa WSW 11.3 km/h 19.3 km/h 66% 0 mm
17:39 19.2 °C 13.1 °C 1017.8 hPa West 17.7 km/h 24.1 km/h 68% 0 mm
17:44 19.1 °C 13.5 °C 1017.8 hPa West 12.9 km/h 20.9 km/h 70% 0 mm
17:54 18.8 °C 13.4 °C 1017.8 hPa WSW 12.9 km/h 22.5 km/h 71% 0 mm
17:59 18.8 °C 13.4 °C 1017.8 hPa WSW 11.3 km/h 24.1 km/h 71% 0 mm
18:04 18.7 °C 13.1 °C 1017.8 hPa WSW 9.7 km/h 24.1 km/h 70% 0 mm
18:09 18.6 °C 12.8 °C 1017.8 hPa WSW 6.4 km/h 24.1 km/h 69% 0 mm
18:14 18.5 °C 12.9 °C 1017.8 hPa WSW 11.3 km/h 24.1 km/h 70% 0 mm
18:19 18.4 °C 13.1 °C 1017.5 hPa WSW 17.7 km/h 29 km/h 71% 0 mm
18:24 18.4 °C 13.1 °C 1017.8 hPa WSW 12.9 km/h 29 km/h 71% 0 mm
18:29 18.3 °C 12.9 °C 1017.5 hPa WSW 9.7 km/h 22.5 km/h 71% 0 mm
18:34 18.1 °C 12.1 °C 1017.8 hPa WSW 8 km/h 24.1 km/h 68% 0 mm
18:44 17.9 °C 11.5 °C 1017.5 hPa SW 8 km/h 25.7 km/h 66% 0 mm
18:49 17.9 °C 11.5 °C 1017.5 hPa West 9.7 km/h 14.5 km/h 66% 0 mm
18:54 17.8 °C 11.4 °C 1017.5 hPa WSW 6.4 km/h 14.5 km/h 66% 0 mm
18:59 17.7 °C 11.5 °C 1017.5 hPa WSW 4.8 km/h 12.9 km/h 67% 0 mm
19:04 17.8 °C 11.1 °C 1017.8 hPa WSW 6.4 km/h 19.3 km/h 65% 0 mm
19:09 17.7 °C 11.3 °C 1017.8 hPa SW 8 km/h 12.9 km/h 66% 0 mm
19:19 17.8 °C 11.2 °C 1017.8 hPa WSW 4.8 km/h 20.9 km/h 65% 0 mm
19:24 17.8 °C 11.4 °C 1017.8 hPa WSW 8 km/h 20.9 km/h 66% 0 mm
19:29 17.8 °C 11.3 °C 1017.8 hPa WSW 8 km/h 19.3 km/h 66% 0 mm
19:34 17.8 °C 11.3 °C 1017.8 hPa WSW 8 km/h 17.7 km/h 66% 0 mm
19:39 17.8 °C 11.4 °C 1017.8 hPa WSW 8 km/h 20.9 km/h 66% 0 mm
19:44 17.9 °C 11.2 °C 1017.8 hPa WSW 8 km/h 20.9 km/h 65% 0 mm
19:49 17.8 °C 11.4 °C 1017.8 hPa SW 8 km/h 16.1 km/h 66% 0 mm
19:54 17.8 °C 11.2 °C 1017.8 hPa SW 6.4 km/h 19.3 km/h 65% 0 mm
19:59 17.9 °C 11.2 °C 1017.8 hPa West 6.4 km/h 17.7 km/h 65% 0 mm
20:04 17.8 °C 11.3 °C 1018.2 hPa WSW 4.8 km/h 14.5 km/h 66% 0 mm
20:09 17.7 °C 11.3 °C 1017.8 hPa SW 4.8 km/h 11.3 km/h 66% 0 mm
20:14 17.6 °C 11.4 °C 1018.2 hPa SW 3.2 km/h 11.3 km/h 67% 0 mm
20:19 17.7 °C 11.4 °C 1018.2 hPa WSW 4.8 km/h 16.1 km/h 67% 0 mm
20:24 17.7 °C 11.2 °C 1018.2 hPa WSW 9.7 km/h 14.5 km/h 66% 0 mm
20:34 17.7 °C 10.8 °C 1018.2 hPa WSW 6.4 km/h 14.5 km/h 64% 0 mm
20:39 17.8 °C 10.9 °C 1018.2 hPa WSW 6.4 km/h 14.5 km/h 64% 0 mm
20:44 17.7 °C 11.1 °C 1018.2 hPa WSW 4.8 km/h 14.5 km/h 65% 0 mm
20:49 17.7 °C 11.2 °C 1018.2 hPa WSW 3.2 km/h 14.5 km/h 66% 0 mm
20:54 17.4 °C 11 °C 1018.2 hPa WSW 4.8 km/h 9.7 km/h 66% 0 mm
21:04 17.5 °C 10.8 °C 1018.2 hPa WSW 4.8 km/h 14.5 km/h 65% 0 mm
21:09 17.6 °C 11.2 °C 1018.2 hPa WSW 6.4 km/h 12.9 km/h 66% 0 mm
21:14 17.5 °C 11.1 °C 1018.2 hPa SW 1.6 km/h 8 km/h 66% 0 mm
21:19 17.3 °C 11.3 °C 1018.5 hPa WNW 4.8 km/h 9.7 km/h 68% 0 mm
21:24 17.4 °C 11.7 °C 1018.5 hPa Calm   11.3 km/h 69% 0 mm
21:29 17.3 °C 11.8 °C 1018.5 hPa SW 11.3 km/h 12.9 km/h 70% 0 mm
21:34 17.4 °C 11.8 °C 1018.5 hPa WSW 4.8 km/h 14.5 km/h 70% 0 mm
21:39 17.4 °C 11.9 °C 1018.5 hPa WSW 6.4 km/h 14.5 km/h 70% 0 mm
21:44 17.4 °C 12.1 °C 1018.5 hPa WSW 4.8 km/h 12.9 km/h 71% 0 mm
21:49 17.5 °C 12.4 °C 1018.5 hPa SW 8 km/h 11.3 km/h 72% 0 mm
21:54 17.5 °C 12.4 °C 1018.5 hPa SW 3.2 km/h 8 km/h 72% 0 mm
21:59 17.6 °C 12.4 °C 1018.5 hPa WSW 4.8 km/h 9.7 km/h 72% 0 mm
22:04 17.6 °C 12.4 °C 1018.5 hPa WSW 4.8 km/h 11.3 km/h 72% 0 mm
22:09 17.5 °C 12.6 °C 1018.5 hPa SW 3.2 km/h 8 km/h 73% 0 mm
22:14 17.4 °C 12.6 °C 1018.5 hPa WSW 3.2 km/h 8 km/h 73% 0 mm
22:19 17.4 °C 12.7 °C 1018.5 hPa Calm   8 km/h 74% 0 mm
22:24 17.4 °C 12.8 °C 1018.5 hPa SW 3.2 km/h 8 km/h 74% 0 mm
22:29 17.4 °C 12.7 °C 1018.5 hPa SW 3.2 km/h 8 km/h 74% 0 mm
22:34 17.3 °C 12.6 °C 1018.5 hPa SW 1.6 km/h 6.4 km/h 74% 0 mm
22:39 16.8 °C 12.4 °C 1018.5 hPa SSW 1.6 km/h 6.4 km/h 75% 0 mm
22:44 16.4 °C 12.4 °C 1018.5 hPa Calm   4.8 km/h 77% 0 mm
22:49 16.2 °C 12.3 °C 1018.5 hPa SSW 9.7 km/h 9.7 km/h 78% 0 mm
22:54 16.1 °C 12.4 °C 1018.5 hPa SSW 4.8 km/h 9.7 km/h 79% 0 mm
22:59 15.9 °C 12.2 °C 1018.5 hPa SSW 3.2 km/h 9.7 km/h 79% 0 mm
23:04 15.8 °C 12.2 °C 1018.2 hPa SSW 3.2 km/h 8 km/h 79% 0 mm
23:09 15.7 °C 12.1 °C 1018.2 hPa SW 3.2 km/h 6.4 km/h 79% 0 mm
23:19 15.5 °C 12.1 °C 1018.2 hPa SW 1.6 km/h 6.4 km/h 80% 0 mm
23:24 15.4 °C 12 °C 1018.2 hPa SW 1.6 km/h 6.4 km/h 80% 0 mm
23:29 15.5 °C 12.3 °C 1018.2 hPa SW 1.6 km/h 8 km/h 81% 0 mm
23:34 15.4 °C 12.2 °C 1018.2 hPa SW 1.6 km/h 8 km/h 81% 0 mm
23:44 15.6 °C 12.3 °C 1018.2 hPa SW 1.6 km/h 4.8 km/h 81% 0 mm
23:54 15.7 °C 12.4 °C 1018.2 hPa SW 3.2 km/h 4.8 km/h 81% 0 mm
23:59 15.8 °C 12.6 °C 1018.2 hPa SSW 3.2 km/h 8 km/h 81% 0 mm
Buffalo, New York, USA
Compliments of Weather Underground - 2.5 mb